SCP
0 0 0 0 0 0 0 0 0 0 0 0 0 0 0 0 0 0 0 0 0 0 0 0 0 0 0 0 0 0 0 0 0 0 0 0 0 0 0 0 0 0 0 0 0 0 0 0 0 0 0 0 0 0
0 0 0 0 0 0 0 0 0 0 0 0 0 0 0 0 0 0 0 0 0 0 0 0 0 0 0 0 0 0 0 0 0 0 0 0 0 0 0 0 0 0 0 0 0 0 0 0 0 0 0 0 0 0
0 0 0 0 0 0 0 0 0 0 0 0 0 0 0 0 0 0 0 0 0 0 0 0 0 0 0 0 0 0 0 0 0 0 0 0 0 0 0 0 0 0 0 0 0 0 0 0 0 0 0 0 0 0
0 0 0 0 0 0 0 0 0 0 0 0 0 0 0 0 0 0 0 0 0 0 0 0 0 0 0 0 0 0 0 0 0 0 0 0 0 0 0 0 0 0 0 0 0 0 0 0 0 0 0 0 0 0
0 0 0 0 0 0 0 0 0 0 0 0 0 0 0 0 0 0 0 0 0 0 0 0 0 0 0 0 0 0 0 0 0 0 0 0 0 0 0 0 0 0 0 0 0 0 0 0 0 0 0 0 0 0
0 0 0 0 0 0 0 0 0 0 0 0 0 0 0 0 0 0 0 0 0 0 0 0 0 0 0 0 0 0 0 0 0 0 0 0 0 0 0 0 0 0 0 0 0 0 0 0 0 0 0 0 0 0
0 0 0 0 0 0 0 0 0 0 0 0 0 0 0 0 0 0 0 0 0 0 0 0 0 0 0 0 0 0 0 0 0 0 0 0 0 0 0 0 0 0 0 0 0 0 0 0 0 0 0 0 0 0
0 0 0 0 0 0 0 0 0 0 0 0 0 0 0 0 0 0 0 0 0 0 0 0 0 0 0 0 0 0 0 0 0 0 0 0 0 0 0 0 0 0 0 0 0 0 0 0 0 0 0 0 0 0
0 0 0 0 0 0 0 0 0 0 0 0 0 0 0 0 0 0 -0 0 0 0 0 0 0 0 0 0 0 0 0 0 0 0 0 0 0 0 0 0 0 0 0 0 0 0 0 0 0 0 0 0 0 0
0 0 0 0 0 0 0 0 0 0 0 0 0 0 0 0 0 0 0 0 0 0 0 0 0 0 0 0 0 0 0 0 0 0 0 0 0 0 0 0 0 0 0 0 0 0 0 0 0 0 0 0 0 0
0 0 0 0 0 0 0 0 0 0 0 0 0 0 0 0 0 0 0 0 0 0 0 0 0 0 0 0 0 0 0 0 0 0 0 0 0 0 0 0 0 0 0 0 0 0 0 0 0 0 0 0 0 0
0 0 0 -0 -0 0 0 0 0 0 0 0 0 0 0 0 0 0 0 0 0 0 0 0 0 0 0 0 0 0 0 0 0 0 0 0 0 0 0 0 0 0 0 0 0 0 0 0 0 0 0 0 0 0
0 -0 0 0 0 0 0 0 0 0 0 0 0 0 0 0 0 0 0 0 0 0 0 0 0 0 0 0 0 0 0 0 0 0 0 0 0 0 0 0 0 0 0 0 0 0 0 0 0 0 0 0 0 0
0 0 0 0 0 0 0 0 0 0 0 0 0 0 0 0 0 0 0 0 0 0 0 0 0 0 0 0 0 0 0 0 0 0 0 0 0 0 0 0 0 0 0 0 0 0 0 0 0 0 0 0 0 0
0 0 -0 0 0 0 0 0 0 0 0 0 0 0 0 0 0 0 0 0 0 0 0 0 0 0 0 0 0 0 0 0 0 0 0 0 0 0 0 0 0 0 0 0 0 0 0 0 0 0 0 0 0 0
0 -0 0 0 0 0 0 0 0 0 0 0 0 0 0 0 0 0 0 0 0 0 0 0 0 0 0 0 0 0 0 0 0 0 0 0 0 0 0 0 0 0 0 0 0 0 0 0 0 0 0 0 0 0
-0 0 0 0 0 0 0 0 0 0 0 0 0 0 0 0 0 0 0 0 0 0 0 0 0 0 0 0 0 0 0 0 0 0 0 0 0 0 0 0 0 0 0 0 0 0 0 0 0 0 0 0 0 0
0 0 0 0 0 0 0 0 0 0 0 0 0 0 0 0 0 0 0 0 0 0 0 0 0 0 0 0 0 0 0 0 0 0 0 0 0 0 0 0 0 0 0 0 -0 -0 0 0 0 0 0 0 0 0
0 0 0 0 0 0 0 0 0 0 0 0 0 0 0 0 0 0 0 0 0 0 0 0 0 0 0 0 0 0 0 0 0 0 0 0 0 0 0 0 0 0 0 0 0 0 0 0 0 0 0 0 0 0
0 0 0 0 0 0 0 0 0 0 0 0 0 0 0 0 0 0 0 0 0 0 0 0 0 0 0 0 0 0 0 0 0 0 0 0 0 0 0 0 0 0 0 0 0 0 0 0 0 0 0 0 0 0
0 0 0 0 0 0 0 0 0 0 0 0 0 0 0 0 0 0 0 0 0 0 0 0 0 0 0 0 0 0 0 0 0 0 0 0 0 0 0 0 0 0 0 0 0 0 0 0 0 0 0 0 0 0
0 0 0 0 0 0 0 0 0 0 0 0 0 0 0 0 0 0 0 0 0 0 0 0 0 0 0 0 0 0 0 0 0 0 0 0 0 0 0 0 0 0 0 0 0 0 0 0 0 0 0 0 0 0
0 0 0 0 0 0 0 0 0 0 0 0 0 0 0 0 0 0 0 0 0 0 0 0 0 0 0 0 0 0 0 0 0 0 0 0 0 0 0 0 0 0 0 0 0 0 0 0 0 0 0 0 0 0
0 -0 0 0 0 0 0 0 0 0 0 0 0 0 -0 0 0 -0 -0 0 -0 -0 -0 0 0 0 0 0 0 0 0 0 0 0 0 0 0 0 0 0 0 0 0 0 0 0 0 0 0 0 0 0 0 0
0 0 0 -0 0 0 0 0 0 0 0 0 0 0 0 0 0 0 0 -0 -0 -0 0 0 0 0 0 0 0 0 0 0 0 0 0 0 0 0 -0 -0 -0 -0 -0 -0 0 0 0 0 0 0 0 0 0 0
0 0 0 0 0 0 0 0 0 0 0 0 0 0 0 0 0 0 0 0 0 -0 -0 -0 -0 -0 -0 -0 0 0 0 0 0 0 0 0 0 0 0 -0 -0 -0 -0 0 -0 -0 -0 0 0 0 0 0 0 0
0 0 0 0 0 0 0 0 0 0 0 0 0 0 0 0 0 0 0 0 0 0 -0 -0 -0 -0 -0 -0 -0 -0 0 0 0 0 0 0 0 0 0 0 0 0 0 0 0 0 0 0 0 0 0 0 0 0
0 0 0 0 0 0 0 0 0 0 0 0 0 0 0 0 0 0 0 0 0 0 0 0 0 0 0 0 0 0 0 0 0 0 0 0 0 0 0 0 0 0 0 0 0 0 0 0 0 0 0 0 0 0
-0 -0 0 0 0 0 0 0 0 0 0 0 0 0 0 0 0 0 0 0 0 0 0 0 0 0 0 0 0 0 0 0 0 0 0 0 0 0 0 0 0 0 0 0 0 0 0 0 0 0 0 0 0 0
0 0 0 -0 -0 0 0 0 0 0 0 0 0 0 0 0 0 0 0 0 0 0 0 0 0 0 0 0 0 0 0 0 0 0 0 0 0 0 0 0 0 0 0 0 0 0 0 0 0 0 0 0 0 0
0 0 0 -0 -0 -0 -0 -0 -0 0 0 0 0 0 0 0 -0 -0 -0 -0 -0 -0 -0 -0 -0 -0 -0 0 0 0 0 0 0 0 0 0 0 0 0 0 0 0 0 0 0 0 0 0 0 0 0 0 0 0
0 0 0 0 -0 -0 -0 -0 -0 -0 0 0 0 0 0 0 0 0 0 0 0 0 0 0 0 0 0 0 0 0 0 0 0 0 0 0 0 0 0 0 0 0 0 0 0 0 0 0 0 0 0 0 0 0
0 0 0 0 0 0 -0 0 0 0 0 0 0 0 0 0 0 0 0 0 0 0 0 0 0 0 0 0 0 0 0 0 0 0 0 0 0 0 0 0 0 0 0 0 0 0 0 0 0 0 0 0 0 0
Wind_Speed_500mb
17 16 15 17 22 22 23 31 34 35 34 30 29 27 28 28 24 25 32 28 29 10 5 17 12 9 10 8 6 11 9 5 3 5 5 5 6 10 8 11 15 19 20 10 10 14 30 30 18 23 2 4 17 28
7 14 18 19 19 27 28 25 25 28 34 38 35 35 30 30 32 28 19 27 25 15 8 20 22 20 13 11 10 22 1 3 4 5 2 3 4 3 3 10 2 9 4 12 16 10 5 48 5 27 6 9 15 38
12 13 16 22 22 22 24 25 27 28 28 32 36 38 38 36 34 35 33 25 32 16 19 27 22 26 29 19 9 4 6 1 1 4 6 4 2 4 7 5 4 5 4 3 3 4 1 26 24 23 12 15 18 36
13 11 14 13 23 24 26 24 24 24 30 30 28 29 33 38 36 33 33 35 32 8 7 6 27 37 30 29 34 21 2 4 3 6 3 3 3 4 3 3 4 4 16 7 8 2 5 18 42 25 26 22 22 28
16 10 9 11 18 25 27 28 27 24 19 23 27 31 31 33 36 36 32 35 38 21 3 2 9 22 33 41 30 32 25 14 5 2 2 1 5 5 2 1 7 15 9 11 8 21 6 3 32 41 32 32 39 47
4 13 12 10 8 18 21 30 32 31 29 20 19 21 25 29 29 32 18 44 41 42 6 4 5 10 23 24 34 38 25 19 16 8 4 7 8 5 6 7 8 30 28 19 6 6 19 9 11 46 39 40 43 45
20 12 10 11 12 16 18 23 31 36 34 29 21 18 15 19 34 33 8 6 43 45 11 6 5 7 14 17 15 21 31 15 14 6 8 6 7 15 2 6 7 25 28 25 14 8 7 13 5 27 39 38 39 45
16 20 21 18 18 24 26 27 30 37 35 31 25 23 21 16 20 34 28 13 49 40 14 5 5 4 17 9 9 14 10 16 9 11 5 6 9 7 8 28 31 23 15 22 29 21 16 15 23 22 36 43 46 52
20 25 27 28 37 38 42 43 40 39 43 38 29 25 25 22 18 26 22 30 59 25 12 9 12 10 24 14 9 12 12 7 12 10 9 13 8 12 19 36 37 42 41 49 35 32 36 34 30 32 39 52 58 64
23 27 27 36 47 49 53 67 57 44 42 39 32 18 13 22 21 18 11 10 27 26 13 7 8 8 21 21 16 13 11 7 8 11 13 9 12 38 48 66 55 52 60 62 53 48 48 48 48 51 57 59 65 75
22 25 28 39 47 34 37 67 69 53 40 41 22 21 12 31 31 18 11 11 11 9 20 16 23 10 17 12 8 13 5 7 8 10 11 10 11 22 55 72 79 74 72 62 63 66 66 72 74 75 76 72 69 75
18 19 25 34 36 14 37 63 67 57 35 33 24 24 34 17 13 11 11 6 5 8 14 13 15 14 14 14 8 9 5 5 9 8 8 9 11 29 43 56 66 64 74 75 74 76 76 77 76 77 80 81 77 74
13 14 20 23 18 15 19 35 44 53 41 41 19 16 21 14 13 14 14 6 9 10 12 15 9 15 9 11 6 6 11 9 12 6 6 8 19 38 40 39 40 37 44 53 63 72 80 83 84 86 84 79 78 79
8 13 19 19 2 9 11 12 30 45 28 17 13 11 8 10 8 8 13 9 10 16 35 29 11 6 8 7 5 8 3 4 9 10 25 14 31 33 26 29 37 35 26 30 44 56 67 75 82 81 77 79 82 79
10 21 23 4 5 9 18 33 32 29 10 6 7 7 9 7 8 10 19 20 26 33 41 16 9 10 5 6 7 6 7 10 11 22 11 13 11 5 4 5 10 18 22 27 30 36 42 54 66 71 69 72 73 72
20 27 19 5 12 12 7 22 46 34 8 6 2 3 2 7 5 6 13 9 30 32 29 10 7 6 8 8 10 11 9 11 9 7 22 28 26 17 12 12 21 25 28 28 29 33 37 42 51 56 56 57 61 64
30 13 17 13 10 9 12 26 24 11 7 3 5 1 5 9 8 9 12 14 31 28 8 7 11 12 6 6 9 7 9 16 16 8 14 17 18 18 17 19 24 25 26 30 34 37 41 40 40 42 44 46 47 51
20 15 10 5 10 13 21 10 9 9 9 6 1 3 5 6 8 10 7 18 15 6 8 6 10 9 9 11 8 9 9 8 9 13 14 13 14 17 21 23 25 28 28 30 32 32 34 32 30 32 33 34 34 35
4 3 3 11 17 10 7 7 6 9 8 8 10 10 10 12 16 13 12 17 7 8 6 5 5 6 7 5 8 7 4 6 10 15 18 18 18 18 19 22 24 26 29 29 28 27 26 24 22 24 24 27 32 35
8 9 14 10 6 6 10 11 11 12 5 5 10 9 7 7 11 16 12 10 10 4 3 4 2 5 4 3 5 5 6 9 13 15 13 11 16 21 22 22 23 25 26 28 26 23 21 23 22 23 26 28 30 32
10 12 11 10 10 18 14 10 12 9 9 8 10 5 5 10 11 10 9 7 6 7 0 3 6 8 11 11 8 6 7 9 10 12 17 20 25 27 26 25 24 23 22 22 21 19 19 20 21 21 25 27 26 28
13 11 10 15 12 11 16 18 11 8 7 9 5 7 9 5 7 7 5 7 6 2 4 6 9 10 9 8 9 10 12 14 15 16 18 22 24 25 23 21 19 19 18 16 15 16 16 17 20 21 22 25 26 27
10 10 13 16 11 14 7 11 5 8 4 4 4 5 5 3 4 4 7 6 4 9 13 12 11 12 12 9 8 10 11 11 10 12 13 13 13 14 13 10 11 11 10 10 11 13 13 12 15 16 17 19 21 21
14 13 17 15 23 6 8 10 8 7 6 5 5 5 5 6 11 2 4 4 9 15 13 12 10 9 6 7 8 9 10 7 5 5 5 6 7 8 6 5 6 7 8 8 9 10 11 11 12 14 14 15 15 16
10 26 17 15 18 11 11 8 11 8 7 8 6 6 6 12 3 4 4 5 11 15 14 13 11 9 7 7 7 8 8 7 5 4 6 5 4 4 5 4 4 4 4 4 5 7 7 8 10 11 12 14 14 15
17 22 15 12 12 9 7 6 9 9 6 5 6 8 8 4 3 5 5 14 12 15 15 13 12 10 8 10 9 8 9 9 8 7 7 5 5 5 7 6 5 5 5 5 6 8 9 10 11 13 15 15 16 20
12 10 15 18 8 5 5 5 3 3 8 9 7 9 5 3 5 5 13 16 15 17 14 12 10 10 12 12 11 10 10 9 9 9 10 11 10 8 9 8 8 7 7 9 9 10 11 13 14 15 17 18 19 21
10 19 7 18 10 11 4 4 7 7 5 5 5 5 5 4 4 11 10 21 20 16 14 13 13 13 13 14 14 14 13 13 13 13 13 11 10 10 11 11 10 11 11 11 11 13 13 14 16 17 19 20 21 25
10 24 12 8 5 9 9 5 2 2 7 2 3 3 4 5 10 14 18 19 18 16 13 12 12 13 14 14 15 14 14 14 14 14 15 12 11 11 12 12 12 13 13 14 13 13 14 17 19 21 22 24 25 28
15 26 10 8 5 7 5 6 6 9 6 5 7 9 8 5 9 15 18 18 15 14 13 12 12 12 12 12 12 12 13 13 13 13 12 11 10 9 8 9 11 13 14 15 15 16 19 22 22 25 26 27 30 33
18 15 7 6 2 5 11 14 9 7 4 4 5 6 8 8 2 12 20 19 15 12 11 10 9 9 10 11 11 10 9 9 9 10 12 12 11 11 12 12 13 14 15 17 19 21 24 27 30 33 36 38 39 42
17 13 10 7 4 12 10 19 9 6 6 6 6 10 10 7 4 12 26 30 29 26 22 20 19 16 15 13 12 12 12 12 12 13 14 15 15 17 18 19 21 22 24 25 27 30 32 35 37 39 42 44 45 46
9 12 8 9 7 8 15 20 6 13 2 6 7 12 12 7 4 17 24 29 30 27 24 22 20 18 17 16 15 15 16 17 18 18 20 21 23 24 26 27 29 30 32 34 35 37 39 41 44 44 46 47 49 51
Wind_Direction_500mb
269 268 254 248 231 225 220 220 222 223 221 222 221 217 214 213 205 206 216 221 216 200 261 204 185 146 147 164 167 145 137 149 176 178 225 168 176 182 176 145 170 175 167 185 196 201 246 141 135 179 136 144 200 194
300 271 257 240 248 233 228 220 223 221 218 218 218 216 221 215 219 212 207 216 204 208 243 233 220 213 194 185 178 177 25 141 129 132 139 127 134 171 95 182 191 199 205 173 204 219 86 179 49 197 207 222 199 189
320 314 262 241 235 229 232 229 223 217 214 218 214 213 211 213 211 223 214 188 199 222 265 251 236 230 229 226 209 183 243 143 118 114 141 107 197 196 170 206 120 236 174 193 135 146 169 202 234 211 230 235 218 201
283 303 321 266 223 226 218 215 214 212 210 210 211 210 210 213 219 218 213 216 207 146 230 231 233 228 222 236 236 233 259 176 123 128 118 169 165 231 191 52 234 104 144 172 263 210 275 255 222 218 218 217 195 180
240 231 284 285 242 225 214 210 202 182 188 194 202 210 212 213 209 215 220 225 220 205 335 271 233 228 229 233 232 232 235 233 193 118 106 153 106 149 48 309 216 186 174 191 239 172 184 267 230 215 215 196 183 172
317 236 254 260 290 252 215 209 202 196 186 178 180 191 207 207 199 202 221 226 215 213 219 247 276 243 232 225 226 232 226 224 215 187 181 196 181 177 207 221 221 207 217 226 324 314 220 273 259 218 211 198 191 190
342 333 258 269 267 263 258 244 206 197 195 184 184 186 189 202 204 189 205 205 201 197 182 188 210 208 207 204 204 205 212 215 217 211 219 195 181 175 186 241 171 223 228 222 231 213 210 229 259 221 218 214 210 208
332 327 313 296 289 276 253 236 231 207 202 197 199 202 199 219 218 234 217 190 179 179 186 211 130 170 169 172 174 180 165 194 225 226 246 206 132 186 245 240 248 268 265 234 232 226 234 247 232 229 230 227 221 214
316 318 309 301 296 259 254 243 224 216 210 203 196 207 221 223 221 236 249 190 193 190 182 186 178 186 174 182 142 163 169 182 186 209 208 176 188 210 227 248 246 243 232 244 244 242 241 243 248 246 239 233 230 222
313 323 315 311 301 278 261 227 211 202 196 195 195 191 218 216 202 198 195 216 194 197 173 184 182 149 174 175 181 160 180 220 206 206 146 212 234 234 240 251 252 249 247 249 239 237 243 245 244 242 241 244 244 234
304 318 324 320 321 302 234 197 188 182 182 186 189 199 204 174 171 186 222 224 182 169 172 184 184 139 185 171 160 208 196 202 228 192 206 206 227 224 237 246 252 253 254 253 254 256 257 255 249 249 250 248 245 237
300 320 329 329 338 43 140 162 171 178 189 193 190 164 164 171 180 205 192 198 219 201 166 167 170 170 150 165 184 170 215 187 244 137 225 234 224 227 241 246 257 257 259 257 253 251 255 255 253 255 258 257 248 242
307 324 325 324 355 135 160 170 177 190 197 188 200 207 179 172 187 188 193 168 161 145 172 159 131 144 128 183 125 170 192 222 139 203 224 244 254 242 247 260 271 280 269 261 258 256 257 257 259 256 256 259 258 245
307 318 300 301 246 212 194 137 157 190 188 186 199 189 210 151 176 191 191 147 159 161 168 166 124 137 134 164 147 204 197 152 212 227 233 250 266 276 278 288 287 288 293 275 264 262 262 262 263 262 259 257 257 256
325 303 294 133 303 249 218 192 173 180 190 231 232 182 188 124 137 181 173 160 169 163 146 136 105 142 147 156 200 111 186 218 216 234 224 219 210 195 239 309 339 340 313 287 284 283 274 269 267 266 265 260 257 254
301 306 286 287 314 275 212 174 179 180 196 191 158 187 61 156 144 185 182 147 161 155 156 109 128 182 178 177 178 195 198 210 218 211 224 226 225 240 255 290 318 319 315 312 311 305 298 287 277 271 267 261 255 251
305 286 223 321 283 270 181 171 148 149 147 95 88 174 333 30 94 132 153 175 163 160 157 138 166 191 102 189 206 177 226 234 229 236 241 236 238 247 268 296 303 301 304 306 306 303 299 292 283 270 259 252 244 239
291 250 273 271 188 167 150 159 104 99 82 59 36 33 62 74 102 121 140 149 156 192 149 165 122 183 191 196 213 192 222 265 260 252 249 259 273 288 296 302 307 310 309 306 300 295 292 288 281 268 255 244 235 225
225 63 128 157 171 165 116 80 79 96 82 98 96 83 78 80 80 109 132 165 155 154 121 171 166 207 207 37 7 18 334 306 286 280 296 298 303 307 308 307 306 307 305 302 295 290 283 269 259 253 237 225 216 210
146 73 78 120 163 117 89 53 60 74 65 78 78 65 61 83 85 76 94 130 141 125 207 239 347 37 27 311 295 301 307 306 314 323 304 303 323 320 312 306 300 298 295 290 284 275 261 248 231 219 215 213 214 211
104 106 80 109 69 62 78 67 61 74 98 73 93 79 80 65 55 50 48 82 62 40 21 310 304 302 290 290 289 303 308 296 292 282 295 308 309 311 309 305 297 286 278 274 265 256 238 233 228 202 198 201 208 207
92 89 74 57 70 69 66 46 86 97 108 122 94 63 53 50 39 19 28 57 59 17 330 308 307 315 323 307 307 303 303 294 291 293 296 303 310 311 309 303 293 283 271 258 245 236 228 219 209 202 199 196 194 198
89 50 52 39 74 51 37 39 58 35 87 82 123 95 53 59 4 23 81 56 54 355 332 317 305 299 300 304 325 336 333 321 309 303 304 307 313 317 313 297 276 263 254 241 225 216 212 208 202 201 199 198 205 209
67 53 32 36 29 43 19 32 37 40 56 36 44 82 38 341 344 204 86 61 353 352 351 341 333 333 326 322 333 336 341 343 356 3 358 357 0 355 336 319 295 277 271 251 232 223 216 215 216 211 207 208 210 216
65 12 24 10 15 14 27 20 4 25 49 12 31 36 6 342 343 51 50 51 1 1 2 0 358 349 324 316 327 332 340 342 341 354 7 358 4 360 337 335 332 316 277 235 227 225 219 216 221 223 222 224 227 239
65 11 32 350 9 27 354 30 24 12 349 41 30 332 333 309 344 26 16 338 340 347 353 355 354 357 340 333 320 319 326 332 333 342 344 328 322 327 312 310 312 300 274 253 251 244 239 236 236 239 243 246 246 250
54 359 8 25 16 10 66 44 18 351 40 21 355 337 315 43 23 12 333 344 335 330 328 323 322 323 320 317 316 310 306 306 313 311 303 292 288 300 296 289 284 277 291 265 259 259 257 255 255 257 260 265 269 273
71 28 27 346 19 31 81 38 31 31 1 341 294 357 27 18 358 331 325 331 334 330 325 318 310 307 308 312 311 312 311 306 302 300 298 296 297 292 294 294 292 293 287 292 283 273 276 277 276 277 276 273 271 272
30 355 358 1 29 49 47 43 56 341 335 296 287 304 291 286 330 333 336 333 334 331 322 317 313 312 310 312 313 313 312 309 307 306 299 294 299 294 291 289 288 287 285 284 281 278 273 271 271 273 276 278 278 277
357 357 359 5 53 31 4 14 337 327 314 296 285 299 298 317 8 9 5 358 349 340 329 317 310 309 309 305 307 304 305 302 296 290 297 299 296 292 290 285 275 271 270 269 268 268 271 276 279 281 284 282 283 284
349 351 342 9 52 2 344 337 332 330 322 317 309 286 297 305 263 23 21 18 11 360 349 341 330 319 315 313 313 311 308 300 285 278 276 276 279 282 280 278 279 280 282 284 286 286 285 285 286 286 287 289 291 290
350 10 355 349 339 344 352 355 331 327 334 342 341 345 344 332 324 8 8 9 7 4 359 352 347 345 338 327 315 306 301 302 301 296 295 294 294 292 292 292 291 292 291 290 290 290 291 290 290 290 291 291 292 293
326 346 344 326 321 358 347 344 348 352 328 359 1 3 4 357 336 8 4 1 360 355 349 342 334 325 321 318 312 304 301 297 295 293 290 290 290 290 291 291 291 291 291 291 291 291 291 291 292 293 294 295 296 295
Wind_Speed_850mb
17 16 15 17 22 22 23 31 34 35 34 30 29 27 28 28 24 25 32 28 29 10 5 17 12 9 10 8 6 11 9 5 3 5 5 5 6 10 8 11 15 19 20 10 10 14 30 30 18 23 2 4 17 28
7 14 18 19 19 27 28 25 25 28 34 38 35 35 30 30 32 28 19 27 25 15 8 20 22 20 13 11 10 22 1 3 4 5 2 3 4 3 3 10 2 9 4 12 16 10 5 48 5 27 6 9 15 38
12 13 16 22 22 22 24 25 27 28 28 32 36 38 38 36 34 35 33 25 32 16 19 27 22 26 29 19 9 4 6 1 1 4 6 4 2 4 7 5 4 5 4 3 3 4 1 26 24 23 12 15 18 36
13 11 14 13 23 24 26 24 24 24 30 30 28 29 33 38 36 33 33 35 32 8 7 6 27 37 30 29 34 21 2 4 3 6 3 3 3 4 3 3 4 4 16 7 8 2 5 18 42 25 26 22 22 28
16 10 9 11 18 25 27 28 27 24 19 23 27 31 31 33 36 36 32 35 38 21 3 2 9 22 33 41 30 32 25 14 5 2 2 1 5 5 2 1 7 15 9 11 8 21 6 3 32 41 32 32 39 47
4 13 12 10 8 18 21 30 32 31 29 20 19 21 25 29 29 32 18 44 41 42 6 4 5 10 23 24 34 38 25 19 16 8 4 7 8 5 6 7 8 30 28 19 6 6 19 9 11 46 39 40 43 45
20 12 10 11 12 16 18 23 31 36 34 29 21 18 15 19 34 33 8 6 43 45 11 6 5 7 14 17 15 21 31 15 14 6 8 6 7 15 2 6 7 25 28 25 14 8 7 13 5 27 39 38 39 45
16 20 21 18 18 24 26 27 30 37 35 31 25 23 21 16 20 34 28 13 49 40 14 5 5 4 17 9 9 14 10 16 9 11 5 6 9 7 8 28 31 23 15 22 29 21 16 15 23 22 36 43 46 52
20 25 27 28 37 38 42 43 40 39 43 38 29 25 25 22 18 26 22 30 59 25 12 9 12 10 24 14 9 12 12 7 12 10 9 13 8 12 19 36 37 42 41 49 35 32 36 34 30 32 39 52 58 64
23 27 27 36 47 49 53 67 57 44 42 39 32 18 13 22 21 18 11 10 27 26 13 7 8 8 21 21 16 13 11 7 8 11 13 9 12 38 48 66 55 52 60 62 53 48 48 48 48 51 57 59 65 75
22 25 28 39 47 34 37 67 69 53 40 41 22 21 12 31 31 18 11 11 11 9 20 16 23 10 17 12 8 13 5 7 8 10 11 10 11 22 55 72 79 74 72 62 63 66 66 72 74 75 76 72 69 75
18 19 25 34 36 14 37 63 67 57 35 33 24 24 34 17 13 11 11 6 5 8 14 13 15 14 14 14 8 9 5 5 9 8 8 9 11 29 43 56 66 64 74 75 74 76 76 77 76 77 80 81 77 74
13 14 20 23 18 15 19 35 44 53 41 41 19 16 21 14 13 14 14 6 9 10 12 15 9 15 9 11 6 6 11 9 12 6 6 8 19 38 40 39 40 37 44 53 63 72 80 83 84 86 84 79 78 79
8 13 19 19 2 9 11 12 30 45 28 17 13 11 8 10 8 8 13 9 10 16 35 29 11 6 8 7 5 8 3 4 9 10 25 14 31 33 26 29 37 35 26 30 44 56 67 75 82 81 77 79 82 79
10 21 23 4 5 9 18 33 32 29 10 6 7 7 9 7 8 10 19 20 26 33 41 16 9 10 5 6 7 6 7 10 11 22 11 13 11 5 4 5 10 18 22 27 30 36 42 54 66 71 69 72 73 72
20 27 19 5 12 12 7 22 46 34 8 6 2 3 2 7 5 6 13 9 30 32 29 10 7 6 8 8 10 11 9 11 9 7 22 28 26 17 12 12 21 25 28 28 29 33 37 42 51 56 56 57 61 64
30 13 17 13 10 9 12 26 24 11 7 3 5 1 5 9 8 9 12 14 31 28 8 7 11 12 6 6 9 7 9 16 16 8 14 17 18 18 17 19 24 25 26 30 34 37 41 40 40 42 44 46 47 51
20 15 10 5 10 13 21 10 9 9 9 6 1 3 5 6 8 10 7 18 15 6 8 6 10 9 9 11 8 9 9 8 9 13 14 13 14 17 21 23 25 28 28 30 32 32 34 32 30 32 33 34 34 35
4 3 3 11 17 10 7 7 6 9 8 8 10 10 10 12 16 13 12 17 7 8 6 5 5 6 7 5 8 7 4 6 10 15 18 18 18 18 19 22 24 26 29 29 28 27 26 24 22 24 24 27 32 35
8 9 14 10 6 6 10 11 11 12 5 5 10 9 7 7 11 16 12 10 10 4 3 4 2 5 4 3 5 5 6 9 13 15 13 11 16 21 22 22 23 25 26 28 26 23 21 23 22 23 26 28 30 32
10 12 11 10 10 18 14 10 12 9 9 8 10 5 5 10 11 10 9 7 6 7 0 3 6 8 11 11 8 6 7 9 10 12 17 20 25 27 26 25 24 23 22 22 21 19 19 20 21 21 25 27 26 28
13 11 10 15 12 11 16 18 11 8 7 9 5 7 9 5 7 7 5 7 6 2 4 6 9 10 9 8 9 10 12 14 15 16 18 22 24 25 23 21 19 19 18 16 15 16 16 17 20 21 22 25 26 27
10 10 13 16 11 14 7 11 5 8 4 4 4 5 5 3 4 4 7 6 4 9 13 12 11 12 12 9 8 10 11 11 10 12 13 13 13 14 13 10 11 11 10 10 11 13 13 12 15 16 17 19 21 21
14 13 17 15 23 6 8 10 8 7 6 5 5 5 5 6 11 2 4 4 9 15 13 12 10 9 6 7 8 9 10 7 5 5 5 6 7 8 6 5 6 7 8 8 9 10 11 11 12 14 14 15 15 16
10 26 17 15 18 11 11 8 11 8 7 8 6 6 6 12 3 4 4 5 11 15 14 13 11 9 7 7 7 8 8 7 5 4 6 5 4 4 5 4 4 4 4 4 5 7 7 8 10 11 12 14 14 15
17 22 15 12 12 9 7 6 9 9 6 5 6 8 8 4 3 5 5 14 12 15 15 13 12 10 8 10 9 8 9 9 8 7 7 5 5 5 7 6 5 5 5 5 6 8 9 10 11 13 15 15 16 20
12 10 15 18 8 5 5 5 3 3 8 9 7 9 5 3 5 5 13 16 15 17 14 12 10 10 12 12 11 10 10 9 9 9 10 11 10 8 9 8 8 7 7 9 9 10 11 13 14 15 17 18 19 21
10 19 7 18 10 11 4 4 7 7 5 5 5 5 5 4 4 11 10 21 20 16 14 13 13 13 13 14 14 14 13 13 13 13 13 11 10 10 11 11 10 11 11 11 11 13 13 14 16 17 19 20 21 25
10 24 12 8 5 9 9 5 2 2 7 2 3 3 4 5 10 14 18 19 18 16 13 12 12 13 14 14 15 14 14 14 14 14 15 12 11 11 12 12 12 13 13 14 13 13 14 17 19 21 22 24 25 28
15 26 10 8 5 7 5 6 6 9 6 5 7 9 8 5 9 15 18 18 15 14 13 12 12 12 12 12 12 12 13 13 13 13 12 11 10 9 8 9 11 13 14 15 15 16 19 22 22 25 26 27 30 33
18 15 7 6 2 5 11 14 9 7 4 4 5 6 8 8 2 12 20 19 15 12 11 10 9 9 10 11 11 10 9 9 9 10 12 12 11 11 12 12 13 14 15 17 19 21 24 27 30 33 36 38 39 42
17 13 10 7 4 12 10 19 9 6 6 6 6 10 10 7 4 12 26 30 29 26 22 20 19 16 15 13 12 12 12 12 12 13 14 15 15 17 18 19 21 22 24 25 27 30 32 35 37 39 42 44 45 46
9 12 8 9 7 8 15 20 6 13 2 6 7 12 12 7 4 17 24 29 30 27 24 22 20 18 17 16 15 15 16 17 18 18 20 21 23 24 26 27 29 30 32 34 35 37 39 41 44 44 46 47 49 51
Wind_Direction_850mb
269 268 254 248 231 225 220 220 222 223 221 222 221 217 214 213 205 206 216 221 216 200 261 204 185 146 147 164 167 145 137 149 176 178 225 168 176 182 176 145 170 175 167 185 196 201 246 141 135 179 136 144 200 194
300 271 257 240 248 233 228 220 223 221 218 218 218 216 221 215 219 212 207 216 204 208 243 233 220 213 194 185 178 177 25 141 129 132 139 127 134 171 95 182 191 199 205 173 204 219 86 179 49 197 207 222 199 189
320 314 262 241 235 229 232 229 223 217 214 218 214 213 211 213 211 223 214 188 199 222 265 251 236 230 229 226 209 183 243 143 118 114 141 107 197 196 170 206 120 236 174 193 135 146 169 202 234 211 230 235 218 201
283 303 321 266 223 226 218 215 214 212 210 210 211 210 210 213 219 218 213 216 207 146 230 231 233 228 222 236 236 233 259 176 123 128 118 169 165 231 191 52 234 104 144 172 263 210 275 255 222 218 218 217 195 180
240 231 284 285 242 225 214 210 202 182 188 194 202 210 212 213 209 215 220 225 220 205 335 271 233 228 229 233 232 232 235 233 193 118 106 153 106 149 48 309 216 186 174 191 239 172 184 267 230 215 215 196 183 172
317 236 254 260 290 252 215 209 202 196 186 178 180 191 207 207 199 202 221 226 215 213 219 247 276 243 232 225 226 232 226 224 215 187 181 196 181 177 207 221 221 207 217 226 324 314 220 273 259 218 211 198 191 190
342 333 258 269 267 263 258 244 206 197 195 184 184 186 189 202 204 189 205 205 201 197 182 188 210 208 207 204 204 205 212 215 217 211 219 195 181 175 186 241 171 223 228 222 231 213 210 229 259 221 218 214 210 208
332 327 313 296 289 276 253 236 231 207 202 197 199 202 199 219 218 234 217 190 179 179 186 211 130 170 169 172 174 180 165 194 225 226 246 206 132 186 245 240 248 268 265 234 232 226 234 247 232 229 230 227 221 214
316 318 309 301 296 259 254 243 224 216 210 203 196 207 221 223 221 236 249 190 193 190 182 186 178 186 174 182 142 163 169 182 186 209 208 176 188 210 227 248 246 243 232 244 244 242 241 243 248 246 239 233 230 222
313 323 315 311 301 278 261 227 211 202 196 195 195 191 218 216 202 198 195 216 194 197 173 184 182 149 174 175 181 160 180 220 206 206 146 212 234 234 240 251 252 249 247 249 239 237 243 245 244 242 241 244 244 234
304 318 324 320 321 302 234 197 188 182 182 186 189 199 204 174 171 186 222 224 182 169 172 184 184 139 185 171 160 208 196 202 228 192 206 206 227 224 237 246 252 253 254 253 254 256 257 255 249 249 250 248 245 237
300 320 329 329 338 43 140 162 171 178 189 193 190 164 164 171 180 205 192 198 219 201 166 167 170 170 150 165 184 170 215 187 244 137 225 234 224 227 241 246 257 257 259 257 253 251 255 255 253 255 258 257 248 242
307 324 325 324 355 135 160 170 177 190 197 188 200 207 179 172 187 188 193 168 161 145 172 159 131 144 128 183 125 170 192 222 139 203 224 244 254 242 247 260 271 280 269 261 258 256 257 257 259 256 256 259 258 245
307 318 300 301 246 212 194 137 157 190 188 186 199 189 210 151 176 191 191 147 159 161 168 166 124 137 134 164 147 204 197 152 212 227 233 250 266 276 278 288 287 288 293 275 264 262 262 262 263 262 259 257 257 256
325 303 294 133 303 249 218 192 173 180 190 231 232 182 188 124 137 181 173 160 169 163 146 136 105 142 147 156 200 111 186 218 216 234 224 219 210 195 239 309 339 340 313 287 284 283 274 269 267 266 265 260 257 254
301 306 286 287 314 275 212 174 179 180 196 191 158 187 61 156 144 185 182 147 161 155 156 109 128 182 178 177 178 195 198 210 218 211 224 226 225 240 255 290 318 319 315 312 311 305 298 287 277 271 267 261 255 251
305 286 223 321 283 270 181 171 148 149 147 95 88 174 333 30 94 132 153 175 163 160 157 138 166 191 102 189 206 177 226 234 229 236 241 236 238 247 268 296 303 301 304 306 306 303 299 292 283 270 259 252 244 239
291 250 273 271 188 167 150 159 104 99 82 59 36 33 62 74 102 121 140 149 156 192 149 165 122 183 191 196 213 192 222 265 260 252 249 259 273 288 296 302 307 310 309 306 300 295 292 288 281 268 255 244 235 225
225 63 128 157 171 165 116 80 79 96 82 98 96 83 78 80 80 109 132 165 155 154 121 171 166 207 207 37 7 18 334 306 286 280 296 298 303 307 308 307 306 307 305 302 295 290 283 269 259 253 237 225 216 210
146 73 78 120 163 117 89 53 60 74 65 78 78 65 61 83 85 76 94 130 141 125 207 239 347 37 27 311 295 301 307 306 314 323 304 303 323 320 312 306 300 298 295 290 284 275 261 248 231 219 215 213 214 211
104 106 80 109 69 62 78 67 61 74 98 73 93 79 80 65 55 50 48 82 62 40 21 310 304 302 290 290 289 303 308 296 292 282 295 308 309 311 309 305 297 286 278 274 265 256 238 233 228 202 198 201 208 207
92 89 74 57 70 69 66 46 86 97 108 122 94 63 53 50 39 19 28 57 59 17 330 308 307 315 323 307 307 303 303 294 291 293 296 303 310 311 309 303 293 283 271 258 245 236 228 219 209 202 199 196 194 198
89 50 52 39 74 51 37 39 58 35 87 82 123 95 53 59 4 23 81 56 54 355 332 317 305 299 300 304 325 336 333 321 309 303 304 307 313 317 313 297 276 263 254 241 225 216 212 208 202 201 199 198 205 209
67 53 32 36 29 43 19 32 37 40 56 36 44 82 38 341 344 204 86 61 353 352 351 341 333 333 326 322 333 336 341 343 356 3 358 357 0 355 336 319 295 277 271 251 232 223 216 215 216 211 207 208 210 216
65 12 24 10 15 14 27 20 4 25 49 12 31 36 6 342 343 51 50 51 1 1 2 0 358 349 324 316 327 332 340 342 341 354 7 358 4 360 337 335 332 316 277 235 227 225 219 216 221 223 222 224 227 239
65 11 32 350 9 27 354 30 24 12 349 41 30 332 333 309 344 26 16 338 340 347 353 355 354 357 340 333 320 319 326 332 333 342 344 328 322 327 312 310 312 300 274 253 251 244 239 236 236 239 243 246 246 250
54 359 8 25 16 10 66 44 18 351 40 21 355 337 315 43 23 12 333 344 335 330 328 323 322 323 320 317 316 310 306 306 313 311 303 292 288 300 296 289 284 277 291 265 259 259 257 255 255 257 260 265 269 273
71 28 27 346 19 31 81 38 31 31 1 341 294 357 27 18 358 331 325 331 334 330 325 318 310 307 308 312 311 312 311 306 302 300 298 296 297 292 294 294 292 293 287 292 283 273 276 277 276 277 276 273 271 272
30 355 358 1 29 49 47 43 56 341 335 296 287 304 291 286 330 333 336 333 334 331 322 317 313 312 310 312 313 313 312 309 307 306 299 294 299 294 291 289 288 287 285 284 281 278 273 271 271 273 276 278 278 277
357 357 359 5 53 31 4 14 337 327 314 296 285 299 298 317 8 9 5 358 349 340 329 317 310 309 309 305 307 304 305 302 296 290 297 299 296 292 290 285 275 271 270 269 268 268 271 276 279 281 284 282 283 284
349 351 342 9 52 2 344 337 332 330 322 317 309 286 297 305 263 23 21 18 11 360 349 341 330 319 315 313 313 311 308 300 285 278 276 276 279 282 280 278 279 280 282 284 286 286 285 285 286 286 287 289 291 290
350 10 355 349 339 344 352 355 331 327 334 342 341 345 344 332 324 8 8 9 7 4 359 352 347 345 338 327 315 306 301 302 301 296 295 294 294 292 292 292 291 292 291 290 290 290 291 290 290 290 291 291 292 293
326 346 344 326 321 358 347 344 348 352 328 359 1 3 4 357 336 8 4 1 360 355 349 342 334 325 321 318 312 304 301 297 295 293 290 290 290 290 291 291 291 291 291 291 291 291 291 291 292 293 294 295 296 295